Regional Weather Roundup
Issued by NWS

Home | Current Version | Previous Version | Text Only | Print | Product List | Glossary Off
Versions: 1 2 3 4 5 6 7 8 9 10 11 12 13 14 15 16 17 18 19 20 21 22 23 24 25 26 27 28 29 30 31 32 33 34 35 36 37 38 39 40 41 42 43 44 45 46 47 48 49 50

000
ASUS44 KMEG 291910
RWRTN
TENNESSEE HOURLY STATE WEATHER ROUNDUP
NATIONAL WEATHER SERVICE MEMPHIS TN
200 PM CDT FRI MAY 29 2015

TNZ002-004-019-021-049-052-054-088>092-292000-
WEST TENNESSEE

CITY           SKY/WX    TMP DP  RH WIND       PRES   REMARKS
MEMPHIS INTL   PTSUNNY   82  66  58 S12       30.07S
NWS MEMPHIS      N/A     82 N/A N/A MISG        N/A
JACKSON        PTSUNNY   83  70  64 S9        30.09F
DYERSBURG      MOSUNNY   82  61  47 S6        30.06F
PARIS          MOSUNNY   81  68  65 S8        30.09F
LEXINGTON      CLOUDY    75  70  83 CALM      30.11F
$$

TNZ008-025-027-028-033-062-065-066-292000-
NORTH MIDDLE TENNESSEE

CITY           SKY/WX    TMP DP  RH WIND       PRES   REMARKS
NASHVILLE      PTSUNNY   82  69  64 S9        30.13F
CLARKSVILLE    MOSUNNY   80  68  66 S9        30.10F
SMYRNA         MOSUNNY   82  69  64 VRB7      30.13F
COOKEVILLE     MOSUNNY   81  70  69 SE12      30.15F
CROSSVILLE     MOSUNNY   78  62  57 SE10G18   30.22F
$$

TNZ061-075-076-078-094-096-097-292000-
SOUTH MIDDLE TENNESSEE

CITY           SKY/WX    TMP DP  RH WIND       PRES   REMARKS
FAYETTEVILLE   MOSUNNY  N/A N/A N/A MISG      30.16F
TULLAHOMA      MOSUNNY   77  64  65 S10       30.18F
WINCHESTER     PTSUNNY   70  66  88 E9        30.19F
MCMINNVILLE    PTSUNNY   72  72 100 SE5       30.20S
COLUMBIA       MOSUNNY   82  72  69 S6        30.11F
SHELBYVILLE    SUNNY     81  72  74 S9        30.15F
$$

TNZ017-018-042-046-047-292000-
NORTHEAST TENNESSEE

CITY           SKY/WX    TMP DP  RH WIND       PRES   REMARKS
TRI CITIES     PTSUNNY   83  62  49 E8        30.20F
ELIZABETHTON   LGT RAIN  72  64  78 CALM      30.23F
$$

TNZ012-013-036-069-073-074-292000-
CENTRAL EAST TENNESSEE

CITY           SKY/WX    TMP DP  RH WIND       PRES   REMARKS
KNOXVILLE      PTSUNNY   84  62  47 VRB6      30.15F
OAK RIDGE      MOSUNNY   84  64  50 MISG      30.17F
GATLINBURG     CLOUDY    70  64  83 NE13      30.20R VSB 1/2
MORRISTOWN     CLEAR     84  64  51 SW12      30.21R
$$

TNZ083-085-099-292000-
SOUTHEAST TENNESSEE

CITY           SKY/WX    TMP DP  RH WIND       PRES   REMARKS
CHATTANOOGA    PTSUNNY   84  65  52 S9        30.16F
$$

SKY/WX REPORTED AS FAIR MEANS FEW OR NO CLOUDS BELOW
12 THOUSAND FEET.



USA.gov is the U.S. government's official web portal to all federal, state and local government web resources and services.